Vorticity
1 2 2 2 4 9 11 8 7 7 7 7 7 7 9 8 9 9 7 7 9 13 16 15 12 11 11 12 8 10 10 10 8 7 6 6 7 7 8 9 9 9 8
-0 2 5 1 2 3 10 11 8 7 7 7 6 6 7 8 9 6 6 6 7 8 11 14 14 12 11 9 9 7 7 8 8 8 8 8 8 8 8 8 7 7 7
-0 6 4 1 1 1 1 6 13 9 7 6 6 6 6 7 8 7 7 6 6 6 7 8 7 7 7 7 8 8 8 8 8 7 7 8 8 7 8 8 8 8 6
-0 5 4 1 0 -0 1 1 5 10 11 8 7 6 6 6 6 6 8 8 8 8 9 8 9 8 7 7 7 7 6 5 4 5 5 5 6 6 6 6 7 6 8
-0 1 6 1 1 -0 -0 -0 1 2 7 11 10 8 6 6 6 6 7 6 6 5 6 6 6 5 4 4 4 4 4 5 6 7 7 6 5 4 4 5 5 6 5
5 -3 4 3 1 0 1 -1 2 3 1 4 8 12 9 8 7 5 5 4 4 5 5 5 5 5 4 3 3 3 3 3 2 2 2 4 7 9 8 5 4 5 5
5 -2 1 3 2 1 1 0 2 1 2 2 2 4 10 11 10 8 6 5 4 4 3 3 4 4 4 4 4 5 5 5 5 6 6 6 5 5 7 8 8 7 5
3 0 -1 0 3 2 1 1 2 1 2 -1 -1 -0 3 2 3 7 9 8 9 9 9 8 7 6 6 6 5 5 5 5 5 5 5 5 5 4 4 6 8 8 8
3 2 0 -0 2 3 2 2 2 2 0 -1 3 -1 -1 1 1 -0 0 -1 -1 1 4 4 4 6 4 5 3 4 5 4 4 5 7 6 5 4 4 5 6 8 8
3 2 2 2 1 4 2 2 2 2 0 1 1 3 0 -2 0 0 2 3 2 0 2 -0 -2 -1 -1 1 -0 0 0 -1 -0 -0 -1 -0 4 6 6 6 4 6 8
5 4 2 1 3 3 3 2 2 2 2 1 1 1 1 0 1 1 1 -0 -2 2 -1 -2 1 2 0 -1 -1 -1 -0 -0 0 -0 0 0 -0 -1 1 4 7 6 5
11 12 5 1 3 3 4 3 3 2 2 1 3 2 2 2 2 2 2 2 2 2 2 2 1 1 2 2 2 2 2 2 2 2 2 2 2 1 1 0 1 4 6
6 5 11 6 4 5 4 3 3 3 3 4 3 3 3 3 4 4 4 3 3 3 3 3 3 3 3 3 4 4 4 3 4 2 3 3 4 3 4 3 2 2 3
21 14 8 8 8 8 7 5 5 6 7 6 5 6 6 7 7 7 6 6 5 5 5 5 5 5 5 5 5 5 4 4 4 5 4 4 4 3 4 5 4 3 3
9 14 17 16 15 14 11 9 10 10 8 7 7 5 4 4 5 6 6 6 7 7 6 5 4 4 5 6 6 6 6 6 6 6 6 6 5 5 6 5 6 5 5
6 7 6 5 6 7 7 7 6 5 5 6 6 6 6 5 4 5 6 6 7 5 5 6 6 8 6 5 5 5 6 6 7 7 7 7 7 7 7 7 7 7 6
5 9 5 6 6 6 5 4 4 2 3 4 4 5 5 7 7 7 6 5 5 5 6 6 5 3 3 3 4 4 5 5 8 8 8 7 6 6 6 6 7 8 8
1 1 1 4 3 2 4 2 2 2 3 3 3 3 4 3 6 7 6 6 6 6 5 4 3 3 3 4 5 6 7 5 4 5 6 6 6 7 7 5 5 5 4
7 6 5 3 2 -1 -0 2 1 2 2 3 3 3 4 4 5 6 6 6 4 4 5 4 4 3 3 3 4 5 4 3 6 3 5 6 7 7 5 6 6 6 4
5 6 6 7 7 8 9 8 7 6 5 5 6 6 5 5 6 7 6 7 8 7 7 7 5 4 3 4 5 4 3 3 3 4 8 11 8 8 6 6 5 6 6
2 2 1 0 2 2 4 7 7 8 8 8 7 7 7 7 7 5 6 6 5 6 5 4 3 4 4 4 3 3 4 6 10 13 13 10 9 11 9 8 8 8 6
7 4 4 2 2 4 5 6 6 6 6 6 6 7 6 7 6 6 4 4 7 8 7 6 5 6 5 7 4 8 10 9 7 9 9 9 8 9 8 9 8 7 5
0 5 5 6 6 8 9 9 8 7 8 8 8 8 8 8 7 7 7 8 7 6 6 6 7 8 9 9 8 6 7 3 5 11 11 12 13 15 15 12 11 9 12
9 7 10 12 8 6 6 5 6 8 8 6 6 6 6 6 6 7 7 7 7 6 6 7 7 8 8 9 9 12 12 11 10 7 6 6 12 8 5 9 9 11 11
10 8 9 9 9 8 7 7 5 4 4 5 5 6 5 7 9 10 10 9 9 9 11 12 12 11 10 10 10 10 8 8 7 5 5 7 4 7 10 15 10 9 10
-3 -0 0 3 5 4 2 3 5 6 7 7 6 6 7 9 10 9 9 9 9 9 8 7 8 7 6 7 9 8 7 4 6 11 10 7 6 9 13 13 11 12 12
Height
3199 3200 3200 3200 3201 3201 3201 3201 3201 3201 3201 3202 3202 3202 3202 3201 3200 3200 3201 3201 3201 3200 3201 3202 3203 3203 3204 3204 3204 3204 3204 3203 3203 3203 3202 3201 3201 3200 3199 3199 3198 3197 3196
3199 3200 3201 3201 3202 3203 3203 3203 3203 3203 3203 3203 3203 3203 3203 3201 3201 3202 3203 3203 3203 3202 3203 3202 3203 3204 3204 3204 3204 3205 3205 3204 3204 3203 3202 3202 3201 3201 3200 3199 3198 3197 3196
3200 3201 3201 3202 3204 3204 3205 3205 3205 3205 3205 3205 3204 3204 3204 3203 3203 3204 3205 3205 3204 3204 3204 3204 3205 3205 3205 3205 3206 3205 3205 3205 3204 3204 3203 3203 3202 3201 3201 3200 3199 3198 3197
3200 3201 3202 3204 3205 3206 3207 3207 3208 3207 3207 3206 3206 3206 3206 3206 3206 3206 3207 3206 3205 3206 3206 3206 3206 3206 3207 3207 3207 3207 3207 3206 3205 3205 3204 3204 3203 3202 3201 3201 3200 3199 3197
3199 3201 3203 3205 3207 3207 3208 3209 3209 3209 3209 3208 3208 3208 3209 3208 3209 3209 3209 3208 3208 3209 3209 3208 3208 3208 3209 3208 3208 3208 3208 3207 3207 3207 3206 3205 3204 3203 3202 3201 3200 3199 3198
3198 3200 3202 3205 3207 3208 3209 3210 3210 3210 3210 3210 3211 3211 3211 3211 3211 3211 3210 3210 3211 3211 3211 3210 3210 3210 3210 3210 3210 3210 3209 3209 3209 3208 3207 3206 3205 3204 3203 3201 3201 3200 3199
3197 3199 3202 3204 3207 3209 3209 3211 3211 3211 3211 3212 3213 3213 3213 3213 3213 3212 3212 3212 3213 3213 3213 3212 3213 3213 3212 3212 3212 3212 3211 3211 3210 3209 3208 3207 3206 3205 3203 3202 3200 3199 3198
3197 3199 3201 3204 3206 3209 3210 3211 3211 3212 3212 3213 3214 3215 3215 3215 3214 3214 3214 3214 3214 3214 3214 3214 3214 3214 3214 3214 3213 3213 3213 3212 3211 3210 3209 3207 3206 3205 3204 3202 3201 3199 3198
3195 3198 3201 3203 3205 3207 3209 3211 3212 3212 3213 3213 3214 3215 3215 3215 3215 3215 3215 3215 3215 3216 3215 3215 3216 3216 3215 3215 3215 3214 3214 3213 3212 3211 3209 3208 3207 3205 3204 3202 3201 3199 3197
3194 3197 3200 3202 3204 3206 3208 3210 3211 3212 3212 3214 3214 3215 3215 3215 3215 3216 3216 3216 3216 3216 3215 3215 3216 3216 3216 3215 3215 3214 3213 3212 3211 3210 3209 3208 3207 3206 3204 3202 3201 3199 3197
3191 3194 3197 3199 3202 3204 3206 3209 3210 3211 3212 3213 3214 3214 3214 3214 3214 3215 3215 3215 3215 3215 3214 3215 3215 3215 3215 3215 3214 3213 3212 3212 3211 3209 3208 3207 3206 3205 3203 3202 3200 3198 3196
3190 3192 3194 3197 3200 3202 3204 3206 3208 3209 3210 3211 3212 3213 3213 3213 3214 3214 3214 3214 3214 3214 3213 3213 3214 3214 3214 3213 3213 3212 3211 3209 3209 3208 3207 3206 3205 3203 3202 3200 3199 3197 3195
3187 3189 3192 3194 3196 3199 3201 3203 3205 3207 3208 3209 3210 3210 3211 3211 3212 3212 3213 3213 3212 3212 3211 3211 3211 3211 3211 3211 3210 3209 3208 3207 3206 3205 3203 3202 3201 3200 3199 3197 3196 3194 3193
3184 3186 3188 3190 3192 3195 3198 3200 3202 3204 3205 3206 3207 3207 3208 3209 3209 3210 3210 3210 3210 3209 3209 3209 3208 3208 3208 3207 3206 3205 3205 3204 3203 3201 3200 3198 3197 3196 3195 3194 3192 3191 3190
3181 3183 3185 3187 3189 3192 3195 3197 3199 3201 3202 3203 3204 3204 3205 3205 3206 3206 3206 3206 3206 3206 3205 3205 3205 3205 3204 3203 3202 3201 3201 3200 3198 3197 3195 3194 3193 3192 3191 3190 3189 3187 3186
3179 3181 3183 3185 3187 3190 3192 3195 3197 3198 3199 3200 3201 3201 3201 3202 3202 3202 3202 3202 3202 3201 3201 3201 3201 3200 3200 3199 3198 3197 3196 3195 3194 3193 3191 3190 3189 3187 3186 3184 3183 3182 3181
3175 3179 3181 3183 3186 3188 3190 3192 3194 3195 3196 3197 3197 3198 3198 3198 3198 3198 3198 3198 3197 3197 3197 3197 3196 3196 3195 3194 3194 3192 3191 3189 3189 3187 3186 3185 3184 3183 3181 3180 3178 3177 3176
3172 3176 3178 3181 3183 3186 3188 3189 3190 3191 3192 3193 3194 3194 3194 3194 3194 3194 3194 3194 3193 3193 3192 3192 3192 3191 3191 3190 3189 3187 3185 3184 3183 3182 3181 3180 3178 3177 3176 3174 3173 3171 3170
3169 3172 3174 3178 3180 3182 3183 3184 3185 3187 3188 3189 3189 3190 3190 3190 3189 3189 3189 3189 3188 3188 3188 3187 3187 3185 3185 3184 3182 3181 3180 3178 3177 3176 3175 3174 3172 3171 3170 3168 3167 3166 3164
3164 3168 3171 3174 3176 3177 3178 3180 3180 3182 3183 3184 3185 3184 3183 3183 3183 3184 3184 3184 3183 3182 3182 3182 3180 3179 3178 3177 3175 3174 3174 3172 3170 3169 3168 3166 3166 3165 3163 3162 3160 3159 3157
3159 3163 3166 3169 3171 3172 3173 3174 3175 3177 3177 3178 3178 3178 3178 3178 3177 3177 3178 3178 3177 3176 3176 3175 3173 3172 3171 3170 3166 3166 3165 3164 3163 3161 3159 3159 3158 3157 3156 3155 3153 3151 3150
3154 3157 3161 3163 3165 3166 3168 3169 3170 3170 3171 3172 3172 3171 3171 3171 3170 3170 3170 3170 3170 3169 3168 3168 3166 3164 3163 3163 3158 3156 3153 3155 3155 3154 3152 3152 3150 3149 3148 3146 3145 3144 3143
3149 3151 3153 3155 3157 3159 3160 3161 3162 3164 3165 3165 3164 3164 3163 3163 3163 3162 3162 3161 3161 3160 3160 3159 3158 3156 3153 3153 3151 3149 3145 3143 3143 3144 3145 3144 3143 3142 3140 3138 3137 3136 3135
3143 3145 3147 3149 3150 3152 3153 3154 3154 3155 3156 3157 3157 3156 3155 3155 3154 3153 3153 3152 3152 3151 3150 3150 3148 3147 3145 3144 3142 3142 3140 3138 3134 3131 3133 3135 3134 3134 3132 3131 3130 3129 3127
3137 3139 3141 3142 3144 3145 3146 3147 3147 3148 3148 3149 3148 3148 3147 3146 3145 3144 3144 3143 3142 3142 3141 3141 3140 3138 3137 3136 3135 3134 3132 3131 3129 3126 3123 3124 3124 3124 3124 3123 3121 3119 3117
3130 3133 3135 3136 3137 3138 3139 3139 3139 3139 3140 3140 3140 3139 3138 3137 3136 3135 3134 3134 3133 3133 3133 3132 3132 3131 3130 3128 3128 3127 3125 3123 3122 3121 3118 3116 3115 3116 3115 3114 3111 3109 3108